[[{"header":{"parameterUnit":"m.s-1","parameterCategory":1,"la1":30.2991,"la2":30.254,"lo1":-89.0895,"lo2":-89.0444,"dy":0.0017,"dx":0.0017,"nx":28,"ny":28,"refTime":"2025-01-04T03:00:00:Z","depth":0,"parameterNumber":2,"parameterNumberName":"U-component_of_WINDS"},"data":[0,0,0,0,0,0,0,0,0,0,0,0,0,0,0,0,0,0,0,0,0,0,0,0,0,0,0,0,0,0,0,0,0,0,0,0,0,0,0,0,0,0,0,0,0,0,0,0,0,0,0,0,0,0,0,0,0,0,-4.5852,-4.5853,0,-4.5881,-4.5881,-4.5881,-4.5706,-4.5701,-4.5696,-4.5692,-4.5724,-4.5729,-4.5734,0,0,0,0,0,0,0,0,0,0,0,0,0,-4.5648,-4.5652,-4.5852,-4.5853,-4.5853,-4.5881,-4.5881,-4.5881,-4.5707,-4.5701,-4.5695,-4.5689,-4.5722,-4.5728,-4.5735,0,0,0,0,0,0,0,0,0,0,0,0,0,-4.5713,-4.5654,-4.5852,-4.5769,-4.5762,-4.5881,-4.5881,-4.5881,-4.5708,-4.5701,-4.5693,-4.5686,-4.572,-4.5728,-4.5736,-4.5936,0,0,-4.5761,-4.5764,0,0,0,0,0,0,0,0,-4.5709,-4.572,-4.5781,-4.5775,-4.5767,-4.5782,-4.582,-4.59,-4.571,-4.5729,-4.5691,-4.5683,-4.5749,-4.5755,-4.5776,-4.5938,-4.5939,-4.5762,-4.5767,-4.577,-4.5772,0,0,0,0,0,0,0,-4.5705,-4.5718,-4.5863,-4.5782,-4.5774,-4.5731,-4.5732,-4.5835,-4.5781,-4.5727,-4.5714,-4.572,-4.5744,-4.5769,-4.5776,-4.5939,-4.5761,-4.5769,-4.5774,-4.5777,-4.6264,-4.6272,0,0,0,0,0,0,-4.5711,-4.5715,-4.5862,-4.5864,-4.5719,-4.5741,-4.5742,-4.5785,-4.5779,-4.5771,-4.5726,-4.5711,-4.5758,-4.5766,-4.5776,-4.6009,-4.577,-4.5778,-4.5783,-4.6256,-4.6266,-4.6274,0,0,0,0,0,0,-4.5707,-4.5726,-4.5861,-4.5786,-4.58,-4.5752,-4.5802,-4.579,-4.5814,-4.5778,-4.5768,-4.5761,-4.5753,-4.5765,-4.5897,-4.6008,-4.5781,-4.5789,-4.6247,-4.6259,-4.627,-4.6478,0,0,0,0,0,0,-4.5702,-4.5726,-4.5801,-4.5789,-4.5805,-4.5982,-4.5809,-4.5795,-4.5828,-4.581,-4.5809,-4.5802,-4.5748,-4.5886,-4.5905,-4.6015,-4.5795,-4.6237,-4.6252,-4.6266,-4.6461,-4.6496,-4.6526,0,0,0,0,0,-4.5696,-4.586,-4.5806,-4.5825,-4.5899,-4.5989,-4.5998,-4.5932,-4.5838,-4.5914,-4.589,-4.5802,-4.5993,-4.5901,-4.5921,-4.6036,-4.6229,-4.6248,-4.6265,-4.6447,-4.6489,-4.6525,0,0,0,0,0,0,-4.5888,-4.5857,-4.5797,-4.5962,-4.598,-4.5959,-4.6053,-4.5979,-4.6024,-4.6005,-4.5922,-4.5923,-4.6069,-4.6065,-4.5963,-4.6228,-4.6094,-4.6118,-4.6226,-4.6265,-4.6297,-4.6295,-4.5802,0,0,0,0,0,-4.5949,-4.6025,-4.5994,-4.6143,-4.6154,-4.6103,-4.6139,-4.6087,-4.6102,-4.6108,-4.6095,-4.6113,-4.6176,-4.622,-4.6277,-4.6459,-4.6456,-4.6548,-4.658,-4.6607,-4.6628,-4.6722,-4.6762,-4.6334,-4.6333,-4.6333,0,0,-4.6078,-4.607,-4.6123,-4.6181,-4.6188,-4.6268,-4.611,-4.6202,-4.626,-4.6122,-4.6246,-4.6237,-4.6251,-4.6409,-4.6478,-4.641,-4.6745,-4.6629,-4.6651,-4.6658,-4.6745,-4.6786,-4.6822,-4.6346,-4.6344,-4.6342,0,0,-4.6352,-4.6354,-4.6477,-4.6487,-4.6499,-4.6463,-4.6493,-4.6484,-4.6472,-4.6594,-4.6492,-4.656,-4.6672,-4.6686,-4.6708,-4.6986,-4.6905,-4.7006,-4.7175,-4.7268,-4.7302,-4.7331,-4.743,-4.7466,-4.7027,-4.7028,-4.7028,0,-4.6511,-4.6626,-4.6551,-4.6649,-4.6677,-4.6554,-4.6678,-4.6691,-4.6722,-4.6745,-4.6668,-4.6804,-4.6806,-4.6964,-4.7032,-4.7054,-4.7085,-4.7007,-4.7303,-4.7332,-4.7358,-4.7451,-4.7488,-4.704,-4.7039,-4.7037,-4.7036,0,-4.682,-4.6902,-4.7,-4.7031,-4.707,-4.7181,-4.7122,-4.7171,-4.7114,-4.7087,-4.7212,-4.7209,-4.7262,-4.7296,-4.7242,-4.7447,-4.7404,-4.7317,-4.7181,-4.7413,-4.7498,-4.7533,-4.7058,-4.7053,-4.7049,-4.7046,0,0,-4.7219,-4.7204,-4.7242,-4.7253,-4.7256,-4.7319,-4.7423,-4.7474,-4.7517,-4.7542,-4.7627,-4.7724,-4.7642,-4.7667,-4.7613,-4.7695,-4.7914,-4.7597,-4.7596,-4.7656,-4.8138,-4.8205,-4.8247,-4.786,-4.7867,-4.7872,-4.8137,0,-4.7487,-4.7664,-4.7598,-4.778,-4.7854,-4.7737,-4.7828,-4.784,-4.7817,-4.7876,-4.7849,-4.7919,-4.7806,-4.782,-4.7896,-4.7872,-4.801,-4.7852,-4.794,-4.7944,-4.794,-4.8292,-4.8363,-4.8614,-4.817,-4.8176,-4.818,0,-4.7824,-4.786,-4.805,-4.8038,-4.8066,-4.815,-4.8189,-4.8248,-4.8258,-4.8235,-4.8262,-4.819,-4.8292,-4.8156,-4.8294,-4.8188,-4.8219,-4.8213,-4.8221,-4.8227,-4.8077,-4.8308,-4.8692,-4.873,-4.8232,-4.8228,-4.8224,0,-4.8095,-4.8192,-4.8317,-4.8331,-4.832,-4.8381,-4.838,-4.8382,-4.8417,-4.8452,-4.8473,-4.852,-4.8546,-4.8584,-4.8527,-4.8433,-4.8674,-4.8533,-4.8657,-4.8659,-4.8714,-4.8712,-4.9109,-4.8735,-4.8734,-4.8733,-4.8733,0,-4.8402,-4.8522,-4.8438,-4.8516,-4.8647,-4.8569,-4.8701,-4.8687,-4.869,-4.8762,-4.8664,-4.8734,-4.8654,-4.8716,-4.8672,-4.8793,-4.8805,-4.879,-4.8777,-4.8799,-4.8801,-4.8819,-4.88,-4.8743,-4.8741,-4.8739,-4.8738,0,-4.8728,-4.8677,-4.8805,-4.8784,-4.8781,-4.8879,-4.886,-4.8931,-4.8899,-4.8992,-4.9009,-4.896,-4.9028,-4.8974,-4.9041,-4.9011,-4.9171,-4.9133,-4.9168,-4.9158,-4.9285,-4.9274,-4.9708,-4.9761,-4.9353,-4.9357,-4.936,0,-4.8927,-4.9017,-4.9004,-4.9045,-4.9049,-4.9116,-4.915,-4.9076,-4.9115,-4.9132,-4.9201,-4.926,-4.9304,-4.9418,-4.9389,-4.9439,-4.9402,-4.955,-4.9409,-4.9428,-4.9404,-4.94,-4.9408,-4.958,-4.9585,-4.9588,-4.9592,0,-4.9286,-4.9256,-4.9307,-4.9351,-4.9393,-4.9423,-4.9446,-4.9485,-4.941,-4.9459,-4.9526,-4.956,-4.9627,-4.9687,-4.9727,-4.9725,-4.9647,-4.9636,-4.9667,-4.9692,-4.9708,-4.97,-4.9246,-4.9627,-4.9623,-4.9621,-4.9619,-4.9617,-4.9555,-4.9628,-4.963,-4.9691,-4.9699,-4.9723,-4.9787,-4.9762,-4.9817,-4.9866,-4.9818,-4.99,-4.9906,-4.9951,-4.9959,-5.0022,-4.996,-5.0006,-5.0018,-5.003,-5.0049,-4.9697,-5.0029,-5.0028,-5.0027,-5.0026,-5.0025,0,-4.9908,-4.9903,-4.9959,-4.9993,-5.0041,-4.996,-4.9981,-5.0026,-5.0099,-5.011,-5.0155,-5.0232,-5.0289,-5.0263,-5.0313,-5.0368,-5.0333,-5.0384,-5.0379,-5.038,-5.0101,-5.0069,-5.0411,-5.0411,-5.0411,-5.0411,-5.0411,-5.0411,-5.0098,-5.0218,-5.0187,-5.031,-5.0304,-5.0382,-5.04,-5.0421,-5.043,-5.052,-5.0566,-5.0548,-5.0545,-5.0593,-5.0642,-5.0633,-5.0656,-5.072,-5.0698,-5.0438,-5.04,-5.0364,-5.0333,-5.0725,-5.0726,-5.0972,-5.0974,-5.0976]},{"header":{"parameterUnit":"m.s-1","parameterCategory":1,"la1":30.2991,"la2":30.254,"lo1":-89.0895,"lo2":-89.0444,"dy":0.0017,"dx":0.0017,"nx":28,"ny":28,"refTime":"2025-01-04T03:00:00:Z","depth":0,"parameterNumber":3,"parameterNumberName":"V-component_of_WINDS"},"data":[0,0,0,0,0,0,0,0,0,0,0,0,0,0,0,0,0,0,0,0,0,0,0,0,0,0,0,0,0,0,0,0,0,0,0,0,0,0,0,0,0,0,0,0,0,0,0,0,0,0,0,0,0,0,0,0,0,0,-2.8225,-2.8226,0,-2.8289,-2.829,-2.829,-2.8264,-2.8263,-2.8261,-2.826,-2.8323,-2.8326,-2.8329,0,0,0,0,0,0,0,0,0,0,0,0,0,-2.8078,-2.8081,-2.8225,-2.8226,-2.8227,-2.8289,-2.829,-2.8291,-2.8264,-2.8262,-2.8261,-2.8259,-2.8322,-2.8326,-2.833,0,0,0,0,0,0,0,0,0,0,0,0,0,-2.8142,-2.8082,-2.8225,-2.8221,-2.8222,-2.8289,-2.829,-2.8291,-2.8265,-2.8262,-2.826,-2.8258,-2.8321,-2.8326,-2.833,-2.8405,0,0,-2.8344,-2.8346,0,0,0,0,0,0,0,0,-2.8138,-2.8147,-2.8221,-2.8222,-2.8222,-2.8266,-2.8261,-2.8329,-2.8265,-2.8248,-2.826,-2.8257,-2.8306,-2.8312,-2.8329,-2.8407,-2.841,-2.8345,-2.8348,-2.835,-2.8351,0,0,0,0,0,0,0,-2.8134,-2.8144,-2.825,-2.8222,-2.8223,-2.8215,-2.8222,-2.8274,-2.8289,-2.825,-2.8248,-2.8256,-2.8306,-2.8324,-2.833,-2.8411,-2.8345,-2.8349,-2.8352,-2.8354,-2.8552,-2.8554,0,0,0,0,0,0,-2.813,-2.8141,-2.8248,-2.8252,-2.8174,-2.822,-2.8227,-2.8254,-2.8289,-2.8292,-2.8258,-2.8254,-2.8317,-2.8325,-2.8332,-2.842,-2.835,-2.8354,-2.8357,-2.8549,-2.8552,-2.8555,0,0,0,0,0,0,-2.8127,-2.814,-2.8246,-2.8196,-2.8209,-2.8225,-2.8256,-2.8257,-2.8275,-2.8295,-2.8297,-2.8274,-2.8316,-2.8326,-2.8386,-2.8422,-2.8356,-2.836,-2.8546,-2.855,-2.8553,-2.8597,0,0,0,0,0,0,-2.8123,-2.8139,-2.8168,-2.8197,-2.8212,-2.83,-2.8258,-2.826,-2.8284,-2.828,-2.831,-2.8313,-2.8315,-2.8379,-2.8391,-2.8427,-2.8364,-2.8543,-2.8548,-2.8552,-2.8592,-2.8601,-2.8609,0,0,0,0,0,-2.8117,-2.8178,-2.817,-2.8183,-2.8249,-2.8302,-2.831,-2.8312,-2.8287,-2.8315,-2.8327,-2.8312,-2.8416,-2.8386,-2.8399,-2.8437,-2.8541,-2.8547,-2.8552,-2.8588,-2.86,-2.8609,0,0,0,0,0,0,-2.8152,-2.8181,-2.8173,-2.8245,-2.8271,-2.8298,-2.8334,-2.8324,-2.8358,-2.8353,-2.8352,-2.8359,-2.8421,-2.8435,-2.8401,-2.8509,-2.8474,-2.8483,-2.8498,-2.8509,-2.8517,-2.8512,-2.8368,0,0,0,0,0,-2.8168,-2.821,-2.8233,-2.8294,-2.8307,-2.8319,-2.8342,-2.834,-2.8367,-2.8378,-2.8395,-2.8421,-2.846,-2.8485,-2.8522,-2.8594,-2.8599,-2.8626,-2.8635,-2.8642,-2.8649,-2.8686,-2.8698,-2.8573,-2.8573,-2.8573,0,0,-2.8202,-2.8223,-2.8249,-2.8301,-2.8322,-2.8363,-2.8328,-2.8374,-2.8405,-2.8385,-2.8443,-2.8456,-2.8486,-2.8552,-2.8582,-2.8565,-2.8684,-2.8649,-2.8654,-2.8657,-2.8693,-2.8705,-2.8715,-2.8577,-2.8576,-2.8575,0,0,-2.8284,-2.8305,-2.8357,-2.8378,-2.8409,-2.8416,-2.8428,-2.8456,-2.8464,-2.8522,-2.8508,-2.8544,-2.861,-2.8631,-2.865,-2.8739,-2.8725,-2.875,-2.8795,-2.8831,-2.8841,-2.885,-2.888,-2.8891,-2.8757,-2.8758,-2.8758,0,-2.8321,-2.8385,-2.8385,-2.8432,-2.8454,-2.8438,-2.849,-2.851,-2.8552,-2.8567,-2.8548,-2.863,-2.8649,-2.8719,-2.874,-2.8757,-2.877,-2.8747,-2.884,-2.8849,-2.8857,-2.8885,-2.8897,-2.876,-2.876,-2.876,-2.876,0,-2.8428,-2.8472,-2.851,-2.855,-2.8577,-2.8627,-2.8633,-2.866,-2.8656,-2.8664,-2.8722,-2.8744,-2.8784,-2.8801,-2.8797,-2.887,-2.8858,-2.884,-2.8805,-2.8871,-2.8898,-2.8909,-2.8764,-2.8763,-2.8763,-2.8762,0,0,-2.8534,-2.8573,-2.8587,-2.8604,-2.8637,-2.867,-2.8718,-2.8757,-2.8779,-2.8808,-2.8847,-2.8903,-2.8885,-2.8907,-2.8906,-2.8938,-2.9004,-2.8915,-2.8916,-2.893,-2.9083,-2.9097,-2.9109,-2.8996,-2.8998,-2.9,-2.9081,0,-2.8618,-2.8702,-2.8703,-2.878,-2.8819,-2.8804,-2.8845,-2.8869,-2.8878,-2.8912,-2.8921,-2.896,-2.8935,-2.8947,-2.8979,-2.899,-2.9035,-2.8984,-2.9031,-2.9032,-2.9023,-2.9124,-2.9138,-2.9213,-2.9091,-2.9093,-2.9094,0,-2.8727,-2.8759,-2.8839,-2.8864,-2.8881,-2.8918,-2.8953,-2.8986,-2.9012,-2.9016,-2.904,-2.9033,-2.908,-2.9044,-2.9108,-2.9073,-2.9092,-2.9101,-2.9103,-2.9107,-2.9067,-2.9129,-2.9238,-2.9249,-2.9111,-2.911,-2.9108,0,-2.8794,-2.8857,-2.8913,-2.8929,-2.896,-2.8986,-2.9,-2.9024,-2.9047,-2.9077,-2.9091,-2.9126,-2.9146,-2.9172,-2.9175,-2.9149,-2.9239,-2.9203,-2.9242,-2.9242,-2.9261,-2.926,-2.9374,-2.9275,-2.9275,-2.9275,-2.9275,0,-2.8887,-2.8936,-2.8944,-2.8978,-2.9033,-2.9033,-2.9087,-2.9098,-2.9119,-2.9154,-2.9144,-2.9177,-2.9178,-2.9212,-2.9214,-2.9266,-2.9275,-2.9278,-2.9278,-2.9279,-2.9278,-2.9291,-2.9285,-2.9278,-2.9277,-2.9277,-2.9276,0,-2.8971,-2.8978,-2.9038,-2.9062,-2.9069,-2.9108,-2.9129,-2.9161,-2.9168,-2.9213,-2.9223,-2.9234,-2.9273,-2.9278,-2.9324,-2.9325,-2.9387,-2.9382,-2.9378,-2.9377,-2.9415,-2.9411,-2.954,-2.9556,-2.9449,-2.945,-2.9451,0,-2.9029,-2.9067,-2.9095,-2.9118,-2.9133,-2.9171,-2.9194,-2.9194,-2.9219,-2.925,-2.9278,-2.9316,-2.9346,-2.9409,-2.942,-2.9455,-2.945,-2.9492,-2.9455,-2.9454,-2.9449,-2.9446,-2.9449,-2.9499,-2.9501,-2.9502,-2.9502,0,-2.9131,-2.9132,-2.9166,-2.9201,-2.9228,-2.9256,-2.9281,-2.9301,-2.9305,-2.9332,-2.9372,-2.9395,-2.9441,-2.9478,-2.9512,-2.9525,-2.9514,-2.9514,-2.9525,-2.9525,-2.9521,-2.9522,-2.9397,-2.9511,-2.951,-2.951,-2.9509,-2.9509,-2.9203,-2.9235,-2.9259,-2.9297,-2.9316,-2.934,-2.9371,-2.9381,-2.9415,-2.9452,-2.9451,-2.9494,-2.9517,-2.9561,-2.9577,-2.961,-2.9596,-2.9611,-2.9615,-2.9619,-2.9622,-2.9517,-2.9616,-2.9616,-2.9616,-2.9616,-2.9615,0,-2.9303,-2.9317,-2.9352,-2.9388,-2.9417,-2.9404,-2.9431,-2.9456,-2.9495,-2.9517,-2.9547,-2.9592,-2.9627,-2.9642,-2.9676,-2.97,-2.9695,-2.9709,-2.9706,-2.9709,-2.9633,-2.962,-2.9712,-2.9711,-2.9711,-2.9711,-2.9711,-2.9711,-2.9358,-2.9411,-2.9415,-2.9477,-2.9491,-2.9533,-2.955,-2.9571,-2.9589,-2.964,-2.9669,-2.9678,-2.9697,-2.9733,-2.9764,-2.9767,-2.978,-2.9795,-2.9796,-2.9725,-2.9715,-2.9706,-2.9693,-2.9798,-2.9798,-2.9869,-2.987,-2.987]}]]